DW8293 Weather Reports


Display with metric or nautical units.
time (UTC)temp
F
wind
direction
speed
MPH
gust
MPH
rain 1hr
in
rain 24hr
in
rain mn
in
humidity
%
barometer
mb
20260507070006 48 90 2.0 4.0 0.00 0.00 0.00 54 1010.7
20260507065403 48 90 2.0 4.0 0.00 0.00 0.00 56 1010.5
20260507064507 47 88 3.0 4.0 0.00 0.00 0.00 56 1010.7
20260507063603 46 88 1.0 4.0 0.00 0.00 0.00 58 1010.7
20260507062703 45 90 2.0 4.0 0.00 0.00 0.00 61 1010.5
20260507061805 43 90 2.0 4.0 0.00 0.00 0.00 64 1010.4
20260507060926 43 90 2.0 4.0 0.00 0.00 0.00 65 1010.5
20260507060005 43 90 2.0 4.0 0.00 0.00 0.00 64 1010.5
20260507055403 43 90 0.0 4.0 0.00 0.00 0.00 64 1010.7
20260507054524 44 102 1.0 4.0 0.00 0.00 0.00 63 1010.4
20260507053603 41 102 0.0 4.0 0.00 0.00 0.00 68 1010.4
20260507052705 41 94 1.0 4.0 0.00 0.00 0.00 67 1010.3
20260507051804 41 100 2.0 4.0 0.00 0.00 0.00 67 1010.3
20260507050903 41 110 2.0 2.0 0.00 0.00 0.00 67 1010.2
20260507050003 39 112 1.0 4.0 0.00 0.00 0.00 70 1010.3
20260507045405 39 115 1.0 4.0 0.00 0.00 0.00 70 1010.2
20260507044503 39 122 2.0 4.0 0.00 0.00 0.00 71 1010.2
20260507043605 39 112 1.0 2.0 0.00 0.00 0.00 72 1010.1
20260507042703 39 112 0.0 2.0 0.00 0.00 0.00 72 1009.9
20260507041803 39 135 0.0 2.0 0.00 0.00 0.00 70 1010.0
20260507040903 39 132 1.0 2.0 0.00 0.00 0.00 70 1009.8
20260507040004 39 75 1.0 2.0 0.00 0.00 0.00 70 1009.7
20260507035403 39 45 0.0 2.0 0.00 0.00 0.00 70 1009.8
20260507034503 39 0 0.0 0.0 0.00 0.00 0.00 71 1009.7
20260507033603 38 0 0.0 0.0 0.00 0.00 0.00 71 1009.7
20260507032705 38 45 0.0 2.0 0.00 0.00 0.00 72 1009.7
20260507031803 37 0 0.0 0.0 0.00 0.00 0.00 72 1009.6
20260507030924 37 0 0.0 0.0 0.00 0.00 0.00 71 1009.7
20260507030005 38 0 0.0 0.0 0.00 0.00 0.00 70 1009.6
20260507025404 38 45 0.0 2.0 0.00 0.00 0.00 71 1009.6
20260507024503 37 0 0.0 0.0 0.00 0.00 0.00 71 1009.7
20260507023603 38 0 0.0 0.0 0.00 0.00 0.00 70 1009.6
20260507022703 38 0 0.0 0.0 0.00 0.00 0.00 70 1009.6
20260507021803 37 0 0.0 0.0 0.00 0.00 0.00 70 1009.6
20260507020905 37 0 0.0 0.0 0.00 0.00 0.00 70 1009.6
20260507020003 37 45 0.0 2.0 0.00 0.00 0.00 69 1009.4
20260507015404 37 50 0.0 4.0 0.00 0.00 0.00 69 1009.6
20260507014503 37 67 1.0 2.0 0.00 0.00 0.00 70 1009.4
20260507013603 37 90 0.0 2.0 0.00 0.00 0.00 71 1009.3
20260507012703 37 80 0.0 2.0 0.00 0.00 0.00 70 1009.5
20260507011804 37 90 1.0 2.0 0.00 0.00 0.00 68 1009.5
20260507010903 37 90 0.0 2.0 0.00 0.00 0.00 68 1009.3
20260507010003 37 90 2.0 2.0 0.00 0.00 0.00 68 1009.5
20260507005405 37 90 0.0 2.0 0.00 0.00 0.00 69 1009.4
20260507004503 37 90 0.0 2.0 0.00 0.00 0.00 70 1009.2
20260507003603 37 90 0.0 2.0 0.00 0.00 0.00 70 1009.2
20260507002703 37 90 1.0 2.0 0.00 0.00 0.00 69 1009.1
20260507001803 37 90 2.0 2.0 0.00 0.00 0.00 70 1008.9
20260507000903 37 0 0.0 0.0 0.00 0.00 0.00 69 1009.2
20260507000006 37 0 0.0 0.0 0.00 0.00 0.00 68 1009.2
20260506235403 37 90 0.0 2.0 0.00 0.00 0.00 66 1009.0
20260506234503 37 93 1.0 4.0 0.00 0.00 0.00 63 1008.8
20260506233603 38 92 2.0 4.0 0.00 0.00 0.00 61 1008.8
20260506232703 39 103 1.0 4.0 0.00 0.00 0.00 58 1008.7
20260506231803 41 132 2.0 4.0 0.00 0.00 0.00 54 1008.8
20260506230905 42 161 2.0 7.0 0.00 0.00 0.00 52 1008.8
20260506230024 42 166 4.0 7.0 0.00 0.00 0.00 51 1008.5
20260506225405 42 181 3.0 7.0 0.00 0.00 0.00 51 1008.5
20260506224503 42 182 4.0 7.0 0.00 0.00 0.00 51 1008.8
20260506223605 43 180 4.0 11.0 0.00 0.00 0.00 50 1008.4
20260506222703 43 184 5.0 14.0 0.00 0.00 0.00 49 1008.5
20260506221803 43 195 5.0 14.0 0.00 0.00 0.00 48 1008.5
20260506220903 43 200 4.0 11.0 0.00 0.00 0.00 49 1008.6
20260506220004 44 181 5.0 11.0 0.00 0.00 0.00 48 1008.4
20260506215403 44 174 4.0 11.0 0.00 0.00 0.00 48 1008.4
20260506214505 44 186 3.0 9.0 0.00 0.00 0.00 47 1008.4
20260506213603 44 161 4.0 8.0 0.00 0.00 0.00 47 1008.4
20260506212724 45 179 5.0 11.0 0.00 0.00 0.00 46 1008.4
20260506211805 45 162 4.0 9.0 0.00 0.00 0.00 45 1008.3
20260506210903 46 177 5.0 8.0 0.00 0.00 0.00 44 1008.1
20260506210003 46 195 4.0 11.0 0.00 0.00 0.00 44 1008.1
20260506205404 46 189 5.0 15.0 0.00 0.00 0.00 43 1008.1
20260506204503 47 189 6.0 13.0 0.00 0.00 0.00 44 1007.9
20260506203603 47 194 6.0 9.0 0.00 0.00 0.00 43 1007.9
20260506202705 47 156 4.0 11.0 0.00 0.00 0.00 43 1007.9
20260506201803 48 178 3.0 8.0 0.00 0.00 0.00 41 1007.7
20260506200903 49 191 6.0 11.0 0.00 0.00 0.00 39 1007.6
20260506200003 49 195 8.0 11.0 0.00 0.00 0.00 37 1007.4
20260506195403 49 212 5.0 9.0 0.00 0.00 0.00 39 1007.6
20260506194505 49 175 5.0 9.0 0.00 0.00 0.00 39 1007.6
20260506193603 48 159 2.0 6.0 0.00 0.00 0.00 40 1007.8
20260506192724 49 164 2.0 4.0 0.00 0.00 0.00 39 1007.6
20260506191803 49 157 2.0 4.0 0.00 0.00 0.00 38 1007.5
20260506190903 49 135 1.0 4.0 0.00 0.00 0.00 38 1007.4
20260506190003 50 136 2.0 4.0 0.00 0.00 0.00 37 1007.3
20260506185404 50 135 2.0 4.0 0.00 0.00 0.00 37 1007.4
20260506184524 50 135 1.0 2.0 0.00 0.00 0.00 37 1007.2
20260506183603 51 146 2.0 4.0 0.00 0.00 0.00 35 1007.6
20260506182703 52 155 2.0 2.0 0.00 0.00 0.00 34 1007.2
20260506181803 52 169 1.0 4.0 0.00 0.00 0.00 33 1007.0
20260506180903 53 195 2.0 4.0 0.00 0.00 0.00 32 1007.2
20260506180004 52 166 3.0 4.0 0.00 0.00 0.00 33 1007.1
20260506175406 52 160 0.0 4.0 0.00 0.00 0.00 33 1007.1
20260506174524 52 162 3.0 4.0 0.00 0.00 0.00 32 1007.1
20260506173603 53 145 1.0 4.0 0.00 0.00 0.00 33 1007.1
20260506172703 53 134 2.0 4.0 0.00 0.00 0.00 33 1007.3
20260506171805 53 163 2.0 4.0 0.00 0.00 0.00 32 1007.3
20260506170906 53 158 2.0 6.0 0.00 0.00 0.00 33 1007.2
20260506170003 53 152 2.0 6.0 0.00 0.00 0.00 33 1007.2
20260506165403 53 180 2.0 4.0 0.00 0.00 0.00 32 1007.4
20260506164503 53 165 3.0 8.0 0.00 0.00 0.00 32 1007.1
20260506163603 53 205 4.0 7.0 0.00 0.00 0.00 32 1007.0
20260506162724 53 222 3.0 4.0 0.00 0.00 0.00 32 1007.5
20260506161803 53 292 2.0 7.0 0.00 0.00 0.00 31 1007.4
20260506160903 53 226 2.0 11.0 0.00 0.00 0.00 30 1007.2
20260506160004 53 220 4.0 15.0 0.00 0.00 0.00 31 1007.3
20260506155403 54 203 8.0 15.0 0.00 0.00 0.00 30 1007.2
20260506154503 53 193 6.0 11.0 0.00 0.00 0.00 31 1007.5
20260506153603 53 246 5.0 8.0 0.00 0.00 0.00 31 1007.4
20260506152703 54 261 4.0 11.0 0.00 0.00 0.00 30 1007.3
20260506151803 54 241 5.0 11.0 0.00 0.00 0.00 31 1007.4
20260506150926 55 228 5.0 11.0 0.00 0.00 0.00 29 1007.5
20260506150003 56 214 7.0 11.0 0.00 0.00 0.00 30 1007.1
20260506145424 57 159 5.0 9.0 0.00 0.00 0.00 28 1007.4
20260506144526 53 133 3.0 11.0 0.00 0.00 0.00 30 1007.6
20260506143603 54 150 2.0 11.0 0.00 0.00 0.00 31 1007.7
20260506142703 53 188 3.0 6.0 0.00 0.00 0.00 31 1007.8
20260506141803 53 178 2.0 7.0 0.00 0.00 0.00 32 1007.7
20260506140905 54 211 2.0 7.0 0.00 0.00 0.00 31 1008.1
20260506140024 54 190 4.0 7.0 0.00 0.00 0.00 30 1007.8
20260506135404 53 210 2.0 13.0 0.00 0.00 0.00 31 1008.0
20260506134504 54 184 9.0 13.0 0.00 0.00 0.00 30 1007.9
20260506133603 55 185 4.0 17.0 0.00 0.00 0.00 30 1007.8
20260506132703 54 126 9.0 14.0 0.00 0.00 0.00 30 1007.9
20260506131803 55 117 3.0 4.0 0.00 0.00 0.00 28 1007.9
20260506130905 53 235 3.0 8.0 0.00 0.00 0.00 31 1008.1
20260506130004 52 229 6.0 9.0 0.00 0.00 0.00 31 1008.2
20260506125403 53 198 4.0 11.0 0.00 0.00 0.00 31 1008.3
20260506124505 53 249 7.0 14.0 0.00 0.00 0.00 30 1008.1
20260506123624 54 205 7.0 11.0 0.00 0.00 0.00 29 1008.2
20260506122703 53 152 2.0 7.0 0.00 0.00 0.00 31 1008.2
20260506121803 52 180 4.0 11.0 0.00 0.00 0.00 31 1008.3
20260506120905 52 173 5.0 11.0 0.00 0.00 0.00 30 1008.4
20260506120004 53 178 7.0 11.0 0.00 0.00 0.00 30 1008.3
20260506115424 55 165 6.0 11.0 0.00 0.00 0.00 31 1008.4
20260506114524 54 153 3.0 7.0 0.00 0.00 0.00 30 1008.3
20260506113603 53 98 4.0 8.0 0.00 0.00 0.00 32 1008.6
20260506112703 54 195 2.0 9.0 0.00 0.00 0.00 30 1008.6
20260506111803 51 259 7.0 13.0 0.00 0.00 0.00 32 1008.5
20260506110903 53 264 2.0 8.0 0.00 0.00 0.00 30 1008.5
20260506110003 54 244 3.0 7.0 0.00 0.00 0.00 33 1008.6
20260506105403 51 294 4.0 4.0 0.00 0.00 0.00 33 1008.7
20260506104524 52 349 1.0 7.0 0.00 0.00 0.00 32 1008.7
20260506103624 52 312 4.0 9.0 0.00 0.00 0.00 32 1008.7
20260506102703 51 251 4.0 8.0 0.00 0.00 0.00 33 1008.7
20260506101803 50 232 4.0 9.0 0.00 0.00 0.00 33 1008.9
20260506100905 50 257 5.0 14.0 0.00 0.00 0.00 33 1008.9
20260506100004 51 209 4.0 9.0 0.00 0.00 0.00 34 1008.9
20260506095403 52 243 7.0 11.0 0.00 0.00 0.00 32 1009.2
20260506094505 51 262 2.0 14.0 0.00 0.00 0.00 33 1009.2
20260506093603 49 241 6.0 20.0 0.00 0.00 0.00 33 1009.0
20260506092703 49 259 11.0 20.0 0.00 0.00 0.00 32 1009.0
20260506091803 53 153 3.0 6.0 0.00 0.00 0.00 32 1009.1
20260506090903 50 214 2.0 11.0 0.00 0.00 0.00 30 1009.0
20260506090003 50 134 3.0 13.0 0.00 0.00 0.00 33 1009.1
20260506085403 50 97 8.0 13.0 0.00 0.00 0.00 32 1009.2
20260506084503 49 113 2.0 11.0 0.00 0.00 0.00 34 1009.3
20260506083603 50 127 3.0 11.0 0.00 0.00 0.00 35 1009.5
20260506082703 48 192 4.0 8.0 0.00 0.00 0.00 37 1009.4
20260506081803 50 117 3.0 6.0 0.00 0.00 0.00 38 1009.4
20260506080903 49 107 2.0 9.0 0.00 0.00 0.00 38 1009.5
20260506072703 46 106 2.0 7.0 0.00 0.00 0.00 39 1009.6
20260506071803 45 134 2.0 6.0 0.00 0.00 0.00 47 1009.4
20260506070924 45 135 1.0 4.0 0.00 0.00 0.00 44 1009.3